   A. Farneth, D. C. Fuls, A. R. Gibbs, A. D. Grauer, H. Gröller, J. A.
   Johnson, R. A. Kowalski, S. M. Larson, G. J. Leonard, D. Rankin, R. L.
   Seaman, F. C. Shelly. 1.0-m reflector + CCD.
(J69) North Observatory, Clanfield  (N50.938989 W1.019660)  UK.
(J95) Great Shefford  (N51.474969 W1.447003)  UK.  Observer P. Birtwhistle.
   0.40-m f/6.0 Schmidt-Cassegrain + CCD.
(K38) M57 Observatory, Saltrio  (N45.873785 E8.918240)  Italy.
(L18) QOS Observatory, Zalistci  (N48.848295 E26.718280)  Ukraine.
(L34) Galhassin Robotic Telescope, Isnello  (N37.939361 E14.020610)  Italy.
(P93) Space Tracking and Communications Center, JAXA  (N34.672353
   E133.544330)  Japan.  Observers S. Okumura, T. Fujiwara. 1.0-m f/3.0
   reflector + CCD.
(Z99) Clixby Observatory, Cleethorpes  (N53.546062 W0.021260)  UK.

Orbital elements:  C0V2461
   Perihelion 2020 Jan 6.967482 +/- 0.00763 TT = 23:13:10 (JD 2458855.467482)
Epoch 2020 Jan 15.0 TT = JDT 2458863.5   Earth MOID: 0.0065   AutoNEOCP
M   2.48763861 +/- 0.011            (J2000 ecliptic)
n   0.30969600 +/- 0.00112          Peri.  167.72300 +/- 0.0053
a   2.16361001 +/- 0.00519          Node   294.42686 +/- 0.0014
e   0.5520806 +/- 0.00108           Incl.   26.32925 +/- 0.026
P   3.18                   H 20.5   G  0.15   U  8.2  
q 0.96912289 +/- 1.12e-5    Q 3.35809713 +/- 0.0103
From 97 observations 2020 Jan. 14-15 (42.0 hr); mean residual 0".57
Residuals in arcseconds: 
200114 703  2.0-  .81+    200114 585  .15+  .04+    200115 J95  .01+  .05+    
200114 703  .30-  .02+    200114 958  .10+  .22-    200115 J95  .04+  .15+    
200114 703  .39+  .81-    200114 585  .07+  .11+    200115 L34  .10+  .08-    
200114 703  .08-  .08-    200114 L18  .59-  3.2+    200115 L34  .11-  .16+    
200114 H06  .51+  .26-    200114 585  .19+  .12-    200115 246  .01+  .09+    
200114 H06  .71+  .28-    200114 958  .31+  .14+    200115 246  .08-  .22-    
200114 H06  .09+  .44-    200114 L18  .89+  1.7-    200115 246  .39+  .32-    
200114 I52  .46-  .50+    200114 958  .44-  .45+    200115 246  .15+  .23-    
200114 I52  .31+  .23-    200114 958  .04+  .35+    200115 246  .00   .28-    
200114 I52  .02+  .00     200114 K38  .04+  .45-    200115 246  .00   .31+    
200114 I52  .12-  .06-    200114 K38  .15+  .02-    200115 246  .10+  .11+    
200114 I52  .09-  .00     200114 K38  .03+  .07+    200115 246  .46-  .40+    
200114 I52  .17-  .06+    200114 K38  .35-  .28-    200115 246  .08-  .10+    
200114 H01  .15+  .04-    200115 G96  .24+  .06+    200115 246  .21-  .59+    
200114 H01  .10-  .09+    200115 G96  .00   .73+    200115 J69  .06+  .13-    
200114 H01  .11-  .03-    200115 G96  .24-  .09-    200115 J69  .08+  .03-    
200114 H01  .13-  .10-    200115 G96  .32-  .05+    200115 J69  .01-  .15-    
200114 595  .15-  .03+    200115 G96  .25-  .95+    200115 J69  .14+  .14-    
200114 L18  1.7+  3.4-    200115 G96  .05-  .24-    200115 J69  .18-  .04-    
200114 L18  .73-  .12-    200115 G96  .02+  .04-    200115 Z99  .44+  .82-    
200114 595  .01-  .03-    200115 P93  1.2+  .89+    200115 Z99  .54+  .54-    
200114 L18  .28-  3.3+    200115 P93  1.3+  .19+    200115 Z99  .51+  .97-    
200114 C95  .35+  .25-    200115 P93  .59+  .23+    200115 204  .01-  .10+    
200114 595  .59-  .72-    200115 P93  .28-  .09+    200115 204  .06+  .17-    
200114 L18  .32+  .03-    200115 P93  .25+  .43-    200115 204  .22-  .26-    
200114 595  .11-  .06+    200115 L34  .36-  .23-    200115 204  .28+  .01-    
200114 C95  .45-  .11+    200115 L34  .29-  .29-    200115 204  .08-  .00     
200114 958  .31-  .08+    200115 C82  .14-  .14+    200115 C23  .38-  .14-    
200114 585  .10+  .09+    200115 C82  .35-  .14+    200115 C23  .29-  .23-    
200114 585  .09+  .20+    200115 C82  .10+  .20+    200115 C23  .57-  .13+    
200114 L18  .93+  .08+    200115 J95  .05-  .05-    200115 C23  .42-  .21+    
200114 585  .22+  .24-    200115 J69  .22-  .18-    
200114 585  .09+  .12-    200115 J95  .03-  .02+    

Ephemerides (geocentric):
Date (UTC) HH   RA              Dec         delta   r     elong  mag " sig PA
---- -- -- --  -------------   -----------  ------ ------ -----  --- ---- ---
2020 01 15 20  23 48 18.440   +17 23 38.81  .02378 .97592  70.5 16.4 .299  27
2020 01 15 21  23 50 14.795   +16 39 54.42  .02357 .97599  70.5 16.4 .304  26
2020 01 15 22  23 52 12.310   +15 55 19.07  .02336 .97605  70.5 16.3 .309  25
2020 01 15 23  23 54 10.985   +15 09 52.82  .02316 .97611  70.5 16.3 .314  23
2020 01 16 00  23 56 10.819   +14 23 35.82  .02297 .97618  70.5 16.3 .319  22
2020 01 16 01  23 58 11.811   +13 36 28.32  .02278 .97624  70.5 16.3 .324  21
2020 01 16 02  00 00 13.960   +12 48 30.71  .02260 .97631  70.5 16.3 .330  20
2020 01 16 03  00 02 17.263   +11 59 43.52  .02242 .97637  70.6 16.2 .336  18
2020 01 16 04  00 04 21.716   +11 10 07.37  .02225 .97644  70.6 16.2 .342  17
2020 01 16 05  00 06 27.315   +10 19 43.07  .02209 .97651  70.6 16.2 .348  16
2020 01 16 06  00 08 34.054   +09 28 31.56  .02193 .97657  70.7 16.2 .354  15
2020 01 16 07  00 10 41.928   +08 36 33.90  .02178 .97664  70.7 16.2 .360  14
2020 01 16 08  00 12 50.930   +07 43 51.35  .02164 .97671  70.8 16.2 .366  13
2020 01 16 09  00 15 01.052   +06 50 25.31  .02150 .97677  70.8 16.1 .372  12
2020 01 16 10  00 17 12.285   +05 56 17.32  .02137 .97684  70.9 16.1 .378  11
2020 01 16 11  00 19 24.619   +05 01 29.12  .02125 .97691  71.0 16.1 .384  10
2020 01 16 12  00 21 38.044   +04 06 02.58  .02114 .97698  71.1 16.1 .390   9
2020 01 16 13  00 23 52.548   +03 09 59.76  .02103 .97704  71.2 16.1 .396   8
2020 01 16 14  00 26 08.119   +02 13 22.83  .02093 .97711  71.3 16.1 .402   7
2020 01 16 15  00 28 24.742   +01 16 14.17  .02084 .97718  71.4 16.0 .407   6
2020 01 16 16  00 30 42.403   +00 18 36.27  .02076 .97725  71.5 16.0 .412   6
2020 01 16 17  00 33 01.086   -00 39 28.22  .02068 .97732  71.6 16.0 .417   5
2020 01 16 18  00 35 20.775   -01 37 56.53  .02062 .97739  71.8 16.0 .422   4
2020 01 16 19  00 37 41.450   -02 36 45.76  .02056 .97746  71.9 16.0 .427   3
2020 01 16 20  00 40 03.094   -03 35 52.89  .02051 .97753  72.1 16.0 .431   2
2020 01 16 21  00 42 25.685   -04 35 14.82  .02047 .97760  72.2 16.0 .435   2
2020 01 16 22  00 44 49.203   -05 34 48.34  .02043 .97767  72.4 15.9 .438   1
2020 01 16 23  00 47 13.626   -06 34 30.19  .02041 .97774  72.6 15.9 .441   0
2020 01 17 00  00 49 38.930   -07 34 17.03  .02039 .97782  72.8 15.9 .443   0
2020 01 17 01  00 52 05.091   -08 34 05.51  .02038 .97789  72.9 15.9 .446 179
2020 01 17 02  00 54 32.083   -09 33 52.23  .02038 .97796  73.1 15.9 .447 179
2020 01 17 03  00 56 59.880   -10 33 33.80  .02039 .97803  73.4 15.9 .448 178
2020 01 17 04  00 59 28.454   -11 33 06.83  .02040 .97811  73.6 15.9 .449 177
2020 01 17 05  01 01 57.776   -12 32 27.96  .02043 .97818  73.8 15.9 .449 177
2020 01 17 06  01 04 27.818   -13 31 33.89  .02046 .97825  74.0 15.9 .449 176
2020 01 17 07  01 06 58.547   -14 30 21.37  .02050 .97833  74.3 15.9 .448 176
2020 01 17 08  01 09 29.934   -15 28 47.21  .02055 .97840  74.5 15.8 .447 175
2020 01 17 09  01 12 01.945   -16 26 48.34  .02061 .97847  74.7 15.8 .445 175
2020 01 17 10  01 14 34.548   -17 24 21.77  .02067 .97855  75.0 15.8 .442 174
2020 01 17 11  01 17 07.707   -18 21 24.66  .02075 .97862  75.2 15.8 .439 174
2020 01 17 12  01 19 41.389   -19 17 54.25  .02083 .97870  75.5 15.8 .436 173
2020 01 17 13  01 22 15.557   -20 13 47.97  .02092 .97877  75.8 15.8 .432 173
2020 01 17 14  01 24 50.176   -21 09 03.36  .02102 .97885  76.0 15.8 .428 173
2020 01 17 15  01 27 25.208   -22 03 38.12  .02112 .97892  76.3 15.8 .423 172
2020 01 17 16  01 30 00.615   -22 57 30.12  .02124 .97900  76.6 15.8 .418 172
2020 01 17 17  01 32 36.359   -23 50 37.40  .02136 .97908  76.8 15.8 .413 171
2020 01 17 18  01 35 12.402   -24 42 58.13  .02148 .97915  77.1 15.8 .407 171
2020 01 17 19  01 37 48.704   -25 34 30.68  .02162 .97923  77.4 15.8 .400 170